| time (UTC) | temp F | wind direction | speed MPH | gust MPH | rain 1hr in | rain 24hr in | rain mn in | humidity % | barometer mb |
| 20260510200329 | 47 | 65 | 2.0 | 5.0 | 0.00 | 0.00 | 0.00 | 69 | 1014.5 |
| 20260510193321 | 49 | 59 | 2.0 | 6.0 | 0.00 | 0.00 | 0.00 | 67 | 1014.5 |
| 20260510190314 | 51 | 51 | 4.0 | 9.0 | 0.00 | 0.00 | 0.00 | 62 | 1014.6 |
| 20260510183344 | 53 | 30 | 5.0 | 10.0 | 0.00 | 0.00 | 0.00 | 57 | 1014.5 |
| 20260510180317 | 54 | 68 | 6.0 | 12.0 | 0.00 | 0.00 | 0.00 | 58 | 1014.5 |
| 20260510173331 | 56 | 60 | 8.0 | 12.0 | 0.00 | 0.00 | 0.00 | 55 | 1014.7 |
| 20260510170346 | 56 | 56 | 6.0 | 16.0 | 0.00 | 0.00 | 0.00 | 55 | 1014.9 |
| 20260510163319 | 57 | 49 | 10.0 | 16.0 | 0.00 | 0.00 | 0.00 | 54 | 1015.2 |
| 20260510160313 | 56 | 78 | 6.0 | 11.0 | 0.00 | 0.00 | 0.00 | 59 | 1015.4 |
| 20260510153326 | 56 | 58 | 8.0 | 14.0 | 0.00 | 0.00 | 0.00 | 60 | 1015.6 |
| 20260510150320 | 58 | 65 | 8.0 | 16.0 | 0.00 | 0.00 | 0.00 | 57 | 1016.0 |
| 20260510143313 | 58 | 62 | 6.0 | 15.0 | 0.00 | 0.00 | 0.00 | 59 | 1016.3 |
| 20260510140324 | 58 | 48 | 10.0 | 18.0 | 0.00 | 0.00 | 0.00 | 59 | 1016.4 |
| 20260510133318 | 57 | 46 | 7.0 | 15.0 | 0.00 | 0.00 | 0.00 | 64 | 1016.7 |
| 20260510130333 | 55 | 69 | 8.0 | 19.0 | 0.00 | 0.00 | 0.00 | 68 | 1017.0 |
| 20260510123347 | 53 | 49 | 8.0 | 16.0 | 0.00 | 0.00 | 0.00 | 71 | 1017.3 |
| 20260510120341 | 52 | 42 | 9.0 | 15.0 | 0.00 | 0.00 | 0.00 | 75 | 1017.6 |
| 20260510113312 | 52 | 15 | 10.0 | 15.0 | 0.00 | 0.00 | 0.00 | 76 | 1018.0 |
| 20260510110327 | 51 | 71 | 7.0 | 14.0 | 0.00 | 0.00 | 0.00 | 79 | 1018.2 |
| 20260510103319 | 51 | 63 | 9.0 | 15.0 | 0.00 | 0.00 | 0.00 | 79 | 1018.3 |
| 20260510100313 | 50 | 64 | 8.0 | 14.0 | 0.00 | 0.00 | 0.00 | 79 | 1018.4 |
| 20260510093322 | 49 | 57 | 5.0 | 12.0 | 0.00 | 0.00 | 0.00 | 83 | 1018.6 |
| 20260510090317 | 48 | 16 | 5.0 | 13.0 | 0.00 | 0.00 | 0.00 | 85 | 1018.7 |
| 20260510083351 | 48 | 36 | 8.0 | 13.0 | 0.00 | 0.00 | 0.00 | 85 | 1018.8 |
| 20260510080324 | 48 | 63 | 8.0 | 13.0 | 0.00 | 0.00 | 0.00 | 86 | 1018.8 |
| 20260510073315 | 48 | 30 | 6.0 | 13.0 | 0.00 | 0.00 | 0.00 | 86 | 1018.8 |
| 20260510070330 | 48 | 49 | 5.0 | 12.0 | 0.00 | 0.00 | 0.00 | 87 | 1018.7 |
| 20260510063324 | 48 | 44 | 7.0 | 19.0 | 0.00 | 0.00 | 0.00 | 87 | 1018.6 |
| 20260510060316 | 48 | 42 | 8.0 | 12.0 | 0.00 | 0.00 | 0.00 | 86 | 1018.5 |
| 20260510053326 | 48 | 50 | 7.0 | 15.0 | 0.00 | 0.00 | 0.00 | 87 | 1018.4 |
| 20260510050319 | 48 | 53 | 7.0 | 10.0 | 0.00 | 0.00 | 0.00 | 88 | 1018.5 |
| 20260510043352 | 47 | 37 | 6.0 | 11.0 | 0.00 | 0.00 | 0.00 | 90 | 1018.5 |
| 20260510040325 | 47 | 49 | 5.0 | 9.0 | 0.00 | 0.00 | 0.00 | 90 | 1018.6 |
| 20260510033318 | 47 | 355 | 6.0 | 10.0 | 0.00 | 0.00 | 0.00 | 89 | 1018.7 |
| 20260510030353 | 47 | 51 | 7.0 | 11.0 | 0.00 | 0.00 | 0.00 | 89 | 1018.8 |
| 20260510023325 | 47 | 49 | 4.0 | 10.0 | 0.00 | 0.00 | 0.00 | 89 | 1019.0 |
| 20260510020339 | 47 | 65 | 6.0 | 10.0 | 0.00 | 0.00 | 0.00 | 89 | 1019.1 |
| 20260510013329 | 47 | 69 | 6.0 | 13.0 | 0.00 | 0.00 | 0.00 | 90 | 1019.2 |
| 20260510010323 | 47 | 46 | 4.0 | 11.0 | 0.00 | 0.00 | 0.00 | 90 | 1019.1 |
| 20260510003318 | 47 | 55 | 5.0 | 11.0 | 0.00 | 0.00 | 0.00 | 89 | 1018.9 |
| 20260510000333 | 48 | 42 | 7.0 | 11.0 | 0.00 | 0.00 | 0.00 | 89 | 1018.6 |
| 20260509233327 | 49 | 41 | 5.0 | 12.0 | 0.00 | 0.00 | 0.00 | 87 | 1018.6 |
| 20260509230321 | 50 | 55 | 7.0 | 13.0 | 0.00 | 0.00 | 0.00 | 85 | 1018.8 |
| 20260509223313 | 51 | 13 | 5.0 | 11.0 | 0.00 | 0.00 | 0.00 | 83 | 1018.7 |
| 20260509220328 | 52 | 53 | 6.0 | 13.0 | 0.00 | 0.00 | 0.00 | 83 | 1018.5 |
| 20260509213321 | 53 | 52 | 7.0 | 13.0 | 0.00 | 0.00 | 0.00 | 81 | 1018.2 |
| 20260509210352 | 55 | 19 | 6.0 | 12.0 | 0.00 | 0.00 | 0.00 | 81 | 1017.8 |
| 20260509203343 | 57 | 46 | 7.0 | 11.0 | 0.00 | 0.00 | 0.00 | 78 | 1017.6 |